Probability
0 0 0 0 0 0 0 1 2 3 9 20 29 33 36 40 41 40 41 45 49 52 57 61 65 67 70 74 75 73 69 67 65 63 65 66 64 63 60 56 52 49 45 43
0 0 0 0 0 0 0 0 1 4 12 24 32 35 37 41 43 43 43 44 47 53 59 63 64 64 66 69 72 73 70 66 63 63 64 64 63 61 58 55 52 49 47 46
0 0 0 0 1 1 2 3 4 10 20 30 36 39 41 42 44 44 43 42 42 50 57 60 61 62 62 63 65 67 68 64 60 60 60 60 58 57 57 55 53 51 49 48
0 0 0 1 2 4 6 9 12 18 27 34 37 40 41 41 41 42 42 39 38 41 48 53 57 57 57 58 59 60 59 57 54 53 53 53 54 54 54 53 53 52 50 49
0 0 0 2 4 6 10 15 19 25 33 36 35 35 36 38 39 41 40 38 37 37 43 50 55 55 53 54 55 54 52 50 48 46 46 47 50 52 51 49 49 49 47 47
0 0 1 3 5 6 11 18 25 33 39 39 36 35 35 38 39 39 39 39 38 39 45 51 53 53 53 52 52 51 50 49 48 45 43 44 47 49 47 45 44 42 41 42
0 1 3 7 9 11 16 23 30 35 40 42 41 40 39 39 38 37 37 38 38 40 45 47 48 48 48 48 47 47 48 49 49 46 43 43 45 45 43 41 39 36 35 36
5 7 10 14 18 22 27 30 31 32 36 39 39 37 37 38 37 36 35 36 36 39 41 42 42 42 41 42 43 43 44 46 46 44 42 41 41 40 38 36 34 32 32 31
12 14 17 19 23 29 31 30 28 28 30 31 29 29 32 36 37 35 34 34 36 37 38 38 39 38 38 38 40 41 42 43 42 40 38 36 32 30 30 30 28 28 27 26
13 14 15 17 21 25 23 21 21 22 23 23 23 24 29 35 38 36 33 32 34 36 37 37 37 38 39 39 39 40 39 38 34 32 30 28 23 21 22 22 22 22 22 20
9 10 11 14 17 18 16 15 16 17 18 20 22 24 28 33 37 35 32 30 33 36 36 35 36 37 37 37 36 35 32 28 23 21 21 21 18 16 15 14 13 14 14 15
9 9 11 13 14 14 14 14 14 15 17 20 22 24 28 30 32 31 30 31 34 34 34 34 35 34 33 33 30 27 24 20 15 13 15 17 16 14 9 6 6 5 6 7
9 10 11 11 10 11 12 13 13 15 17 19 21 22 24 25 23 23 27 31 33 31 31 33 34 33 31 30 27 23 19 14 12 11 12 13 14 13 9 5 3 2 1 1
9 10 9 8 8 8 8 8 10 11 13 14 14 15 17 17 16 17 22 26 28 27 27 29 30 28 27 27 26 22 15 11 10 10 9 11 11 11 10 7 4 2 1 0
8 8 7 7 7 6 5 5 6 7 8 9 10 11 12 13 14 15 17 21 22 22 22 23 24 22 22 22 22 20 14 11 9 8 8 8 8 8 8 7 6 4 2 1
5 5 5 6 7 5 4 4 4 5 7 8 8 8 9 11 13 14 16 17 17 16 17 18 19 19 19 19 18 15 11 8 7 6 6 6 6 6 6 5 4 4 3 2
4 4 4 5 6 6 5 5 5 6 7 8 8 8 7 7 10 12 14 15 14 12 12 13 14 16 17 17 13 9 6 5 4 4 5 6 6 5 4 4 3 2 1 1
4 4 4 4 4 5 5 5 6 6 7 7 8 7 5 5 8 11 14 15 13 11 10 10 10 12 13 13 10 7 4 3 2 3 4 5 5 4 4 5 3 2 0 0
2 3 3 3 3 3 3 4 4 4 4 5 6 6 6 6 8 12 14 15 13 10 10 9 8 9 10 9 8 7 3 1 1 1 2 3 4 4 4 4 3 2 0 0
1 1 1 1 1 1 2 2 2 2 2 3 3 4 5 5 8 12 14 14 12 10 10 9 8 8 8 7 5 4 2 0 0 0 1 2 3 3 2 2 2 1 0 0
0 0 0 0 1 2 3 3 2 2 2 2 3 3 4 4 6 10 11 11 11 11 9 7 7 7 6 4 2 1 0 0 0 0 1 2 3 2 1 0 0 0 0 0
1 1 0 1 2 3 3 3 2 1 1 2 2 3 3 4 5 7 8 9 10 8 6 5 4 4 3 2 1 1 0 0 0 0 0 1 2 1 0 0 0 0 0 0
1 1 0 1 2 3 2 1 0 0 0 1 1 2 2 3 4 5 6 7 6 4 3 3 2 1 1 2 2 2 1 1 0 0 0 0 0 0 0 0 0 0 0 0
2 2 1 1 1 1 1 0 0 0 0 1 1 1 1 2 2 3 4 3 2 1 1 1 0 0 1 2 3 3 2 1 0 0 0 0 0 0 0 0 0 0 0 0
2 2 1 1 0 0 0 0 0 0 0 0 0 0 1 1 1 2 3 1 0 0 0 0 0 0 0 1 2 2 1 0 0 0 0 0 0 0 0 0 0 0 0 0
2 1 0 0 0 0 0 0 0 0 0 0 0 0 0 0 0 1 2 1 0 0 0 0 0 0 0 1 1 1 0 0 0 0 0 0 0 0 0 0 0 0 0 0
1 0 0 0 0 0 0 0 0 0 0 0 0 0 0 0 0 0 1 0 0 0 0 0 0 0 0 0 1 0 0 0 0 0 0 0 0 0 0 0 0 0 0 0
Wind_Speed
17 18 17 14 14 14 14 13 13 9 6 4 3 3 4 5 6 5 5 5 5 5 4 4 4 3 3 3 3 4 5 5 5 4 4 4 4 4 3 4 4 4 4 4
17 18 18 17 16 15 14 14 15 11 7 2 4 4 4 4 5 5 4 4 5 5 5 4 4 3 3 2 2 3 3 3 3 3 3 3 3 3 2 3 3 3 4 4
15 17 18 18 14 14 12 11 10 9 4 1 2 3 3 4 4 4 3 3 4 4 3 3 2 2 2 2 2 3 3 3 3 2 2 2 2 3 3 4 3 3 3 3
13 14 19 11 8 9 9 8 6 4 1 1 3 4 3 4 4 3 3 3 3 3 3 2 2 2 2 3 2 1 2 2 2 2 2 2 2 2 3 3 3 3 3 3
11 15 16 10 7 7 7 7 6 3 1 1 3 4 4 4 4 4 4 3 3 3 3 3 3 3 3 3 2 1 2 2 2 2 1 1 2 2 2 1 2 2 2 2
12 14 14 7 5 5 5 5 3 3 2 1 1 2 2 4 5 5 4 3 3 3 3 3 4 3 2 1 2 1 1 2 2 2 1 0 1 1 1 1 1 1 1 1
15 15 10 7 7 7 7 2 4 3 2 2 2 3 4 4 4 4 3 3 3 3 3 3 3 3 2 1 1 2 2 2 1 1 0 0 1 1 1 1 1 2 2 2
12 13 9 7 6 3 3 4 4 5 5 5 5 6 4 3 3 3 3 3 3 3 3 3 2 2 2 2 2 2 2 2 2 2 1 1 1 1 1 1 2 2 1 2
5 4 3 5 5 4 4 3 4 4 5 4 3 3 3 2 2 2 2 2 2 2 3 3 2 2 2 2 2 2 2 1 1 1 1 1 1 1 1 1 2 2 2 2
5 4 4 3 3 4 5 5 5 5 4 3 3 3 3 3 3 3 2 2 1 1 2 2 2 2 2 2 2 1 1 0 0 0 0 0 1 1 1 1 1 1 1 2
6 6 5 4 3 4 3 2 2 3 3 3 3 2 2 2 2 2 1 1 1 1 1 1 1 1 1 1 1 1 0 0 1 1 1 0 1 2 1 1 1 1 2 1
6 4 4 4 3 3 3 2 2 2 3 3 2 2 2 2 2 2 2 1 2 2 1 1 1 1 1 1 2 1 0 1 2 1 0 1 1 1 4 2 1 0 2 2
6 5 4 6 6 4 3 3 3 2 2 2 2 2 1 1 1 1 1 1 1 1 0 1 1 2 1 1 1 1 0 1 2 1 1 1 1 1 0 1 1 1 1 1
5 4 5 5 5 4 3 3 3 3 2 2 1 2 1 1 1 1 1 1 1 1 1 1 1 2 2 1 1 1 1 1 1 1 1 1 1 1 1 1 0 1 1 0
4 4 5 4 4 4 3 3 2 2 2 2 1 0 0 1 1 1 2 2 2 2 2 2 2 2 2 2 2 2 2 2 1 2 2 2 1 1 1 1 0 1 1 1
3 3 4 4 3 3 3 3 2 2 1 1 1 1 1 1 1 2 2 2 2 2 3 3 2 2 2 2 2 2 1 1 2 2 2 2 1 1 1 1 1 0 0 1
3 3 3 3 3 3 3 2 1 1 1 1 1 1 1 1 2 2 2 2 2 2 2 2 2 2 2 2 2 2 2 1 2 2 2 2 2 2 1 1 1 1 1 1
3 3 2 2 2 1 0 1 1 1 1 1 1 1 2 2 2 2 2 1 2 2 2 2 2 2 2 2 2 2 2 2 1 1 1 1 2 2 1 1 2 2 1 1
0 0 0 0 1 1 1 1 1 1 1 1 1 2 2 2 2 2 1 1 1 1 2 2 2 2 2 2 2 2 2 2 1 1 1 0 1 2 2 1 2 2 2 2
1 1 2 3 3 2 2 2 2 2 2 2 2 2 3 2 2 1 1 1 2 1 2 2 2 2 2 2 3 2 2 2 1 1 1 1 1 1 2 2 2 2 2 2
2 3 3 2 3 3 3 2 2 3 3 3 2 2 2 2 1 1 1 1 2 2 2 2 2 2 2 2 3 2 1 1 1 1 1 1 1 1 1 1 2 2 2 2
3 3 3 3 3 3 3 3 3 3 3 2 2 2 1 1 1 1 1 1 2 1 1 1 1 3 4 3 2 2 1 1 1 1 1 1 1 1 1 1 2 2 1 1
3 3 4 3 3 3 4 3 3 3 2 2 1 1 1 1 1 1 1 1 1 1 2 2 2 3 3 2 2 1 1 0 1 1 1 1 1 1 1 1 1 1 1 1
3 4 4 4 3 3 3 3 2 2 3 2 1 0 0 0 1 1 2 3 2 1 1 2 1 2 2 1 1 1 1 1 0 0 0 1 1 1 1 1 1 1 1 2
3 3 3 2 2 2 3 3 3 3 2 2 2 1 1 2 2 2 2 2 2 1 1 1 1 1 2 2 1 2 1 1 1 1 1 1 1 1 1 1 1 1 1 1
2 2 2 1 1 1 1 1 1 1 1 1 1 1 1 2 2 2 1 1 2 1 1 1 1 2 1 1 1 1 1 1 0 0 0 1 1 1 1 1 1 1 1 0
2 2 1 1 1 1 1 1 1 2 2 1 1 1 1 1 2 1 1 1 1 1 1 1 1 1 1 1 1 1 1 1 1 1 1 1 1 1 1 1 1 0 0 0
Wind_Direction
274 277 277 266 261 252 246 254 262 268 253 199 131 106 106 110 104 93 81 68 69 72 69 67 69 80 98 122 135 152 157 170 182 186 181 190 194 192 195 200 211 212 222 228
276 272 273 267 260 254 249 251 258 259 256 177 116 119 130 122 117 113 99 85 77 73 67 59 53 57 67 91 105 124 142 150 148 161 166 178 183 178 187 207 219 217 218 223
271 274 274 258 257 259 256 256 260 264 264 165 131 105 121 125 117 110 106 104 95 86 84 72 57 63 82 70 81 96 105 114 135 157 168 174 189 185 194 206 214 218 218 225
269 269 260 267 272 269 265 271 267 265 264 135 100 87 85 92 112 118 106 92 84 85 89 95 78 75 88 89 78 95 113 123 133 152 158 172 191 201 207 209 212 225 224 223
262 261 257 254 274 282 279 277 303 328 7 110 116 118 107 79 75 92 85 73 73 69 67 66 65 59 74 95 116 129 106 89 81 94 138 182 207 218 216 206 207 219 225 216
254 260 263 267 286 293 281 266 351 30 72 83 142 203 126 76 72 67 66 68 65 61 57 56 55 57 57 73 95 94 87 83 86 80 80 211 181 220 219 203 209 214 223 214
247 255 258 290 300 284 260 276 13 23 54 62 61 56 79 75 70 67 68 67 66 64 56 55 52 58 45 41 52 55 65 66 70 73 67 144 131 150 203 218 202 206 219 222
248 253 258 334 322 332 33 42 36 42 55 59 67 79 77 70 67 70 63 63 62 65 65 59 51 64 55 44 36 48 62 58 47 35 336 45 79 217 203 223 242 213 218 245
287 281 3 15 13 25 36 32 46 52 55 62 66 73 66 57 54 58 66 64 58 67 76 68 64 79 76 49 44 52 62 57 39 29 26 27 317 271 237 209 239 248 231 235
286 284 314 344 4 5 11 18 37 52 47 51 51 47 38 30 22 27 49 53 51 84 94 82 67 61 63 69 69 72 88 65 329 188 194 299 288 287 286 277 243 253 275 276
281 274 296 319 342 342 339 351 20 37 31 25 34 38 25 24 13 20 47 24 26 89 111 109 96 86 82 86 83 71 43 314 286 270 238 64 359 351 327 348 276 250 273 270
281 287 294 311 337 338 331 338 12 15 4 4 11 356 356 12 33 42 50 67 63 58 69 91 88 76 70 84 89 82 327 289 288 281 232 153 114 45 32 14 36 180 244 259
289 304 299 300 311 313 320 335 335 328 322 338 356 342 331 9 23 31 26 43 69 84 110 95 87 76 55 69 85 97 281 286 291 297 290 271 240 210 210 8 21 2 275 244
280 285 282 283 294 300 295 301 308 310 326 341 333 326 334 5 346 4 354 18 11 9 15 53 64 57 47 37 39 5 304 305 300 282 274 281 284 282 275 266 305 354 351 223
272 265 267 282 294 295 291 284 286 297 318 329 309 291 19 339 346 26 23 25 29 30 27 41 42 29 24 20 4 336 323 322 336 322 304 298 298 300 298 300 334 43 40 19
273 261 251 257 268 271 271 269 268 292 315 307 323 72 99 93 58 41 31 22 36 31 29 33 30 19 12 359 344 313 291 300 285 291 292 296 298 307 313 314 327 46 346 338
268 254 247 255 250 249 243 237 243 349 29 39 57 49 47 69 77 64 43 28 42 46 44 44 22 8 352 337 313 298 300 289 274 279 287 303 314 308 307 315 331 339 336 350
250 245 240 245 265 279 350 83 76 54 44 41 64 58 55 66 75 71 57 42 46 40 40 45 18 348 346 341 324 310 301 290 281 295 319 340 332 317 320 324 320 319 315 315
262 96 102 48 30 27 51 75 78 65 49 40 61 76 77 84 89 78 57 34 26 29 33 29 357 309 313 345 321 285 280 284 292 309 310 327 297 310 324 324 315 313 306 303
71 82 90 81 72 68 49 47 71 72 65 64 72 74 72 58 65 78 81 45 19 27 27 359 318 313 326 356 330 311 315 318 332 344 332 323 324 322 316 313 318 318 312 312
66 84 88 88 91 92 86 73 85 84 76 74 78 77 81 72 46 40 90 81 77 51 11 333 309 324 8 353 311 307 312 337 2 359 333 331 311 303 307 315 309 300 300 308
62 88 91 88 83 80 83 93 90 83 75 70 73 76 86 91 81 67 65 71 88 47 318 319 17 34 11 329 310 319 327 348 347 328 310 305 287 282 289 294 298 304 322 338
68 80 85 83 88 88 89 89 89 94 102 97 81 61 31 11 14 65 71 64 80 2 320 29 44 29 344 310 324 311 292 313 317 303 307 308 307 318 322 315 320 325 340 336
71 81 83 79 87 100 104 105 111 129 136 136 130 121 117 99 73 83 97 89 66 31 28 78 55 340 310 310 326 325 343 356 303 278 342 350 345 341 346 338 2 21 12 350
77 81 91 113 112 109 121 140 147 150 151 138 136 118 83 62 64 69 83 92 112 151 144 140 218 277 299 334 355 13 18 11 2 358 351 340 331 341 349 352 11 15 1 2
87 81 76 46 44 63 125 121 103 94 98 104 106 91 79 91 109 118 124 132 138 177 224 196 200 217 249 300 333 351 13 39 2 276 318 319 319 326 334 342 16 13 354 357
129 119 120 101 93 79 68 71 75 78 74 67 67 75 75 90 107 113 124 144 166 183 221 235 225 225 248 268 298 300 319 2 8 11 15 6 355 354 347 347 6 24 322 326